Temp
16 15 14 13 12 11 11 11 11 11 11 11 11 11 10 10 9 9 9 9 9 9
13 13 12 12 11 11 10 10 10 10 10 10 10 10 9 9 9 8 8 8 8 8
11 11 11 10 10 10 9 9 9 9 9 9 9 8 8 8 8 8 7 7 6 6
8 9 8 8 8 9 9 8 8 8 8 8 8 8 7 7 6 6 5 5 5 5
7 7 7 7 8 8 7 7 7 7 7 7 7 6 6 5 5 5 5 4 4 4
7 7 7 7 6 6 7 7 7 7 6 6 5 5 4 4 4 4 4 4 4 3
6 6 6 6 6 6 6 6 6 5 5 4 4 4 4 4 4 4 4 3 3 2
5 5 5 5 5 5 5 5 5 4 4 4 3 2 2 3 3 3 3 2 2 1
4 4 4 4 4 4 4 4 4 3 3 3 3 2 1 1 2 1 1 1 1 1
3 3 3 3 3 3 3 3 3 3 3 3 2 1 1 1 1 1 1 0 0 0
3 2 2 3 2 2 2 2 2 2 2 2 1 1 0 0 0 0 -0 -0 -0 -1
2 2 2 2 2 2 2 1 1 1 1 1 1 0 0 0 -0 -1 -1 -1 -1 -1
1 1 1 1 1 1 1 0 0 0 0 -0 -0 -1 -1 -1 -1 -2 -2 -2 -2 -2
0 0 0 0 -0 -0 -0 -0 -0 -1 -1 -1 -1 -2 -2 -2 -2 -2 -3 -3 -3 -3
Height
829 832 838 842 846 850 853 855 856 858 859 860 861 862 862 862 863 863 862 862 861 861
829 833 837 842 845 850 852 854 856 858 859 860 861 861 862 862 862 862 862 861 861 859
829 832 837 842 846 850 852 854 856 858 859 860 861 862 861 861 861 861 861 860 860 858
830 834 838 842 850 849 852 854 856 858 859 861 861 861 860 861 860 860 860 859 857 856
831 837 840 845 848 849 854 853 856 857 859 859 859 860 860 861 860 859 857 855 853 852
834 838 843 846 849 851 853 855 856 857 858 859 859 860 861 860 859 858 855 852 850 850
836 840 844 847 849 852 854 856 857 857 858 859 860 859 858 857 856 854 853 852 850 849
838 841 844 847 850 852 853 855 857 858 858 859 859 858 857 855 853 852 851 851 849 848
840 843 846 848 850 852 854 855 857 858 859 858 858 858 855 852 852 851 850 848 846 845
838 841 846 849 851 852 855 856 856 857 858 857 856 854 853 853 852 849 848 847 844 841
839 842 845 848 852 854 854 856 856 856 857 857 855 854 852 850 848 847 845 842 839 836
840 842 846 847 850 852 854 855 856 856 856 856 856 854 851 851 848 845 842 839 835 834
841 843 846 848 849 853 853 854 855 854 854 855 853 851 849 847 842 840 837 837 833 828
842 843 847 848 849 852 853 853 853 852 853 852 851 851 848 845 842 838 834 831 826 825
Wind_Speed
28 35 31 26 24 21 16 12 11 9 8 7 5 5 5 5 5 6 7 7 8 9
29 29 27 25 23 19 15 14 12 10 9 7 6 5 6 6 7 8 8 9 10 11
26 27 27 24 22 18 16 14 12 10 9 7 6 6 6 7 9 9 10 11 12 13
26 24 23 22 18 19 16 14 12 10 8 7 7 8 8 9 9 10 10 11 13 15
26 25 23 22 18 17 15 13 11 9 8 7 8 7 8 9 10 11 12 13 15 16
26 25 23 21 18 16 13 12 10 9 8 8 7 6 7 10 11 13 14 14 15 16
25 23 21 18 16 14 12 11 10 10 9 8 6 5 8 10 12 15 16 15 15 16
23 21 20 18 15 13 12 11 9 8 8 7 7 7 10 12 15 17 18 17 18 18
21 19 18 16 14 12 11 10 8 8 8 8 8 5 9 12 14 16 17 19 20 21
21 19 16 14 12 12 10 8 8 8 8 9 9 10 11 11 14 17 19 20 20 22
19 18 16 13 12 10 9 9 9 9 10 11 12 12 10 12 15 18 20 20 19 19
18 17 14 13 11 9 8 8 9 10 11 13 13 13 13 16 19 22 23 22 19 19
16 15 13 11 10 8 8 8 8 9 10 11 13 14 14 16 20 22 22 19 21 22
14 13 11 10 8 7 7 8 10 11 11 11 13 15 16 18 19 20 21 24 24 24
Wind_Direction
181 175 177 171 165 165 157 147 143 138 129 118 107 84 72 66 46 26 16 9 8 359
168 166 161 162 162 158 150 143 139 130 122 109 95 76 68 55 39 27 14 2 352 348
155 155 156 152 154 149 142 138 134 126 116 105 87 70 57 48 29 13 10 3 356 357
147 147 146 143 146 138 138 132 126 121 109 92 71 56 48 38 19 13 7 3 357 357
143 145 142 140 139 136 133 125 121 110 96 79 63 53 45 25 16 9 3 0 355 355
141 141 140 137 135 133 125 119 109 100 85 71 60 57 30 9 8 7 3 358 351 343
139 137 134 132 129 125 115 106 97 87 78 67 60 37 4 2 1 3 1 357 352 344
135 134 132 127 120 114 107 99 92 84 74 65 50 14 1 359 359 359 353 348 345 342
133 128 122 119 116 110 101 94 84 67 50 41 32 26 2 355 349 349 347 341 338 336
131 125 121 118 113 101 93 85 70 53 35 27 20 12 360 351 341 343 341 339 335 333
130 125 122 118 105 94 80 64 49 37 21 12 12 0 354 350 340 336 335 335 333 326
133 127 121 110 99 84 71 57 37 23 12 2 359 359 357 347 336 332 331 333 331 324
129 122 112 102 91 74 60 44 24 18 9 359 352 351 346 340 337 333 333 326 319 319
124 116 108 98 85 63 46 27 16 6 359 353 347 335 341 342 338 337 331 323 322 319